User: anonymous   Login
Location: Unspecified
(0.0000°N, 0.0000°E)
Time: 03:20:46
(UTC+00:00)
Language:

CLOUDSAT - Orbit

View from above orbital plane
View from above orbital plane
View from above satellite
View from above satellite

Ground track
Ground track

The orbit data is extracted from the following two-line orbital elements,

1 29107U 06016A   16176.18342211  .00000136  00000-0  40272-4 0  9994
2 29107  98.1988 119.2965 0002029  83.1737 276.9692 14.57140373540295
Epoch (UTC): 24 June 2016 04:24:07
Eccentricity: 0.0002029
inclination: 98.1988°
perigee height: 701 km
apogee height: 704 km
right ascension of ascending node: 119.2965°
argument of perigee: 83.1737°
revolutions per day: 14.57140373
mean anomaly at epoch: 276.9692°
orbit number at epoch: 54029

The dashed part of the orbit path shows where the satellite is in the earth's shadow,  

DLR